This is the latest recevied weather packets stored in our database for station/object N2ZVN. If no packets are shown the sender has not sent any weather packets the latest 10 day(s).
| Time | Temp. | Humidity | Pressure | Rain* | Wind** | Luminosity | Snow |
|---|---|---|---|---|---|---|---|
| 1777897322 | 14.44° C | 47% | 1007.1 hPa | 0 mm | - | 229 W/m² | - |
| 1777897019 | 14.44° C | 47% | 1007.1 hPa | 0 mm | - | 229 W/m² | - |
| 1777896716 | 13.89° C | 47% | 1007.1 hPa | 0 mm | - | 207 W/m² | - |
| 1777896413 | 13.89° C | 48% | 1007.1 hPa | 0 mm | - | 73 W/m² | - |
| 1777896110 | 13.89° C | 48% | 1007 hPa | 0 mm | - | 73 W/m² | - |
| 1777895808 | 13.89° C | 48% | 1006.8 hPa | 0 mm | - | 157 W/m² | - |
| 1777895505 | 13.89° C | 48% | 1006.9 hPa | 0 mm | - | 157 W/m² | - |
| 1777895203 | 13.89° C | 48% | 1006.9 hPa | 0 mm | - | 157 W/m² | - |
| 1777894900 | 12.78° C | 48% | 1006.9 hPa | 0 mm | - | 65 W/m² | - |
| 1777894598 | 12.78° C | 48% | 1007.2 hPa | 0 mm | - | 65 W/m² | - |
| 1777894295 | 12.78° C | 48% | 1007.1 hPa | 0 mm | - | 65 W/m² | - |
| 1777893992 | 12.78° C | 48% | 1007 hPa | 0 mm | - | 56 W/m² | - |
| 1777893688 | 12.78° C | 48% | 1007 hPa | 0 mm | - | 56 W/m² | - |
| 1777893384 | 12.78° C | 48% | 1007.1 hPa | 0 mm | - | 63 W/m² | - |
| 1777893080 | 12.78° C | 48% | 1007 hPa | 0 mm | - | 44 W/m² | - |
| 1777892778 | 12.78° C | 48% | 1007.1 hPa | 0 mm | - | 44 W/m² | - |
| 1777892474 | 12.78° C | 49% | 1006.9 hPa | 0 mm | - | 45 W/m² | - |
| 1777892169 | 12.22° C | 49% | 1006.9 hPa | 0 mm | - | 8 W/m² | - |
| 1777891866 | 12.22° C | 49% | 1007 hPa | 0 mm | - | 8 W/m² | - |
| 1777891564 | 12.22° C | 49% | 1007.2 hPa | 0 mm | - | 8 W/m² | - |
| 1777891260 | 12.22° C | 49% | 1006.8 hPa | 0 mm | - | 8 W/m² | - |
| 1777890960 | 12.22° C | 49% | 1006.9 hPa | 0 mm | - | 8 W/m² | - |
| 1777890655 | 12.22° C | 48% | 1006.9 hPa | 0 mm | - | 8 W/m² | - |
| 1777890351 | 12.22° C | 48% | 1006.8 hPa | 0 mm | - | 5 W/m² | - |
| 1777890047 | 12.22° C | 48% | 1006.9 hPa | 0 mm | - | 5 W/m² | - |
* Rain latest hour (hover to see other rain measurements)
** Current wind speed in m/s (hover to see current wind gust speed)